sat.trackr.live / text

‹ back to catalog

KUIPER-00480

NORAD 68876 · 2026-095N

PAYLOAD ACTIVE UNKNOWN

§ Identity

Operator
Country
US
Launch date
2026-04-28
Launch site
AFETR
Launch vehicle
Mass (kg)
RCS (m²)

External: N2YO · Heavens-Above · Gunter

§ Orbital elements

Epoch: 2026-09-19T23:58:20.981280Z

Period
97.30 min
Inclination
51.9040°
Eccentricity
0.0000887
Mean motion
14.79931626 rev/d
Perigee alt
628.9 km
Apogee alt
630.2 km
Semi-major
7,007.7 km
B*
2.8290e-4
RAAN
171.4207°
Arg perigee
91.2902°
Mean anomaly
268.8162°
Rev number
2,193

§ Raw data

KUIPER-004801 68876U 26095N   26262.99885395  .00001936  00000+0  28290-3 0  99932 68876  51.9040 171.4207 0000887  91.2902 268.8162 14.79931626 21930

JSON: /api/v1/satellites/68876 · /tle

For live sub-satellite position, see the globe view (requires WebGL).

§ Visibility from observer

Set your observer location to see the next 7 days of passes ≥ 10°. The values pass through the URL so the page stays shareable.

No JS? Fill the form by hand. The geolocation button needs JavaScript.